Location: St Paul
(33.9360°N, 83.4200°W)
Time: 19:00:23
(UTC-04:00)

Resurs 01 Rocket - Pass Details

Date: 06 October 2017
Orbit: 634 x 645 km, 98.1° (Epoch: 22 October)

Event Time Altitude Azimuth Distance (km) Brightness Sun altitude
Exits shadow 20:07:12 12° 55° (NE) 1,881 3.6 -12.5°
Drops below altitude 10° 20:08:19 10° 41° (NE) 2,024 3.8 -12.7°
Sets 20:11:43 0° 12° (NNE) 2,936 4.9 -13.5°
